Southwestern Grand Banks: Past 24 Hour Conditions

 

St. John's Int'l Airport

04:30 PM NDT 20 April 2014
This table is a summary of hourly weather conditions for the past 24 hours.
Date / Time
(NDT)
Wind(knots) Conditions Visibility(km) Pressure(kPa) Air tempC) Relative humidity(%) Dew pointC) Wind Chill
20 April 2014
16:30 NNW 13 gust 20 Mainly Sunny 24 101.3 1 70 -4 *
15:30 NNW 18 gust 32 Mainly Sunny 24 101.3 1 70 -4 *
14:30 NW 21 gust 31 Mainly Sunny 24 101.2 0 71 -5 -7
13:30 NW 24 gust 31 Mainly Sunny 24 101.2 -1 72 -5 -9
12:30 NW 22 gust 28 Mostly Cloudy 24 101.2 -2 76 -5 -9
11:30 NW 26 gust 33 Partly Cloudy 24 101.2 -2 76 -6 -11
10:30 NW 28 gust 36 Partly Cloudy 24 101.1 -2 79 -5 -11
9:30 NNW 19 gust 30 Light Snow 24 101.0 -3 90 -4 -11
8:30 NNW 20 gust 32 Light Snow 8 100.9 -2 92 -4 -10
7:30 NW 20 gust 27 Light Snow 8 100.8 -3 93 -4 -11
6:30 NNW 23 gust 28 Cloudy 13 100.7 -3 90 -5 -12
5:30 NNW 19 gust 32 Light Snow 10 100.6 -3 92 -4 -11
4:30 NW 20 Light Snow 5 100.6 -3 93 -4 -11
3:30 NNW 19 gust 28 Light Snow 2 100.5 -3 93 -4 -11
2:30 NNW 24 gust 32 Light Snow 5 100.5 -3 93 -4 -12
1:30 NNW 24 gust 29 Light Snow 19 100.4 -2 94 -3 -11
0:30 NNW 17 gust 23 Light Snow 3 100.5 -2 95 -3 -10
19 April 2014
23:30 NNW 16 gust 24 Light Snow 5 100.4 -2 95 -3 -9
22:30 N 15 gust 22 Light Snow 3 100.5 -2 97 -2 -8
21:30 N 16 gust 29 Light Freezing Drizzle 2 100.5 -1 99 -1 -8
20:30 N 16 gust 24 Light Freezing Drizzle 0.8 100.7 -1 99 -2 -8
19:30 NNE 17 gust 26 Light Freezing Drizzle 0.6 100.7 -1 99 -1 -8
18:30 NNE 15 gust 20 Light Freezing Rain 0.6 100.8 -1 99 -1 -7
17:30 NE 15 gust 20 Light Freezing Drizzle 0.4 100.9 -1 99 -1 -7
16:30 ENE 16 gust 23 Light Freezing Drizzle 0.8 101.1 -1 98 -1 -8
 
Map of Atlantic - Newfoundland marine weather areas Southwestern Grand Banks - 44138 Banquereau - 44139 Tail of the Bank - 44140 Nickerson Bank - 44251 Northeast Burgeo Bank - 44255 Blanc-Sablon Airport Cap Whittle Chevery Natashquan Airport Heath Point Miscou Island Grand Étang Ingonish Beach North Mountain St.Paul Island J.A. Douglas McCurdy Sydney Airport Charlottetown Airport East Point North Cape Argentia Bonavista Burgeo Cape Race Corner Brook Daniel's Harbour Englee Ferolle Point La Scie Port aux Basques Rocky Harbour Sagona Island St. Anthony Airport St. John's Int'l Airport St. Lawrence Stephenville Airport Twillingate Winterland Wreckhouse Cartwright Airport Mary's Harbour Grates Cove Pool's Island Marticot Island Long Pond Îles de la Madeleine Airport
Legend: buoyBuoy land stationLand Station